Regional Weather Roundup
Issued by NWS Cleveland, OH

Home | Current Version | Previous Version | Text Only | Print | Product List | Glossary Off
Versions: 1 2 3 4 5 6 7 8 9 10 11 12 13 14 15 16 17 18 19 20 21 22 23 24 25 26 27 28 29 30 31 32 33 34 35 36 37 38 39 40 41 42 43 44 45 46 47 48 49 50

000
ASUS41 KCLE 061902
RWRCLE
OHIO REGIONAL WEATHER ROUNDUP
NATIONAL WEATHER SERVICE CLEVELAND, OH
200 PM EST FRI MAR 06 2015

NOTE: "FAIR" INDICATES FEW OR NO CLOUDS BELOW 12,000 FEET WITH NO
SIGNIFICANT WEATHER AND/OR OBSTRUCTIONS TO VISIBILITY.

OHZ001>008-015>018-024>027-034-035-043-044-062000-
   NORTHWEST OHIO

CITY           SKY/WX    TMP DP  RH WIND       PRES   REMARKS
DEFIANCE       MOSUNNY   21   7  54 SW15G24   30.41F WCI   8
FINDLAY        SUNNY     22  11  62 SW16      30.41F WCI   8
TOLEDO EXPRESS SUNNY     19   5  54 SW17G23   30.40F WCI   4
TOLEDO EXEC    MOSUNNY   20   7  57 SW17      30.42F WCI   5
LIMA           SUNNY     23  10  57 SW14      30.41F WCI  11
$$

OHZ009>014-019>023-028>033-038-089-062000-
   NORTHEAST OHIO

CITY           SKY/WX    TMP DP  RH WIND       PRES   REMARKS
CLE-HOPKINS    PTSUNNY   22   7  52 SW12G22   30.44F WCI  10
CLE-LAKEFRONT  PTSUNNY   24   7  48 SW14      30.42F WCI  12
CUY CO. ARPT   PTSUNNY   25   9  50 S12       30.42F WCI  14
LORAIN-ELYRIA  SUNNY     21   8  57 SW16      30.42F WCI   7
ASHTABULA      MOSUNNY   21   3  45 SW10G21   30.40F WCI  10
AKRON-CANTON   PTSUNNY   21   6  52 SW10      30.40F WCI  10
WOOSTER        NOT AVBL
MANSFIELD      SUNNY     21   8  57 S17       30.39F WCI   7
YOUNGSTOWN     PTSUNNY   20   3  48 S8G17     30.39F WCI  10
$$

OHZ042-051>053-060>062-070>072-077>081-062000-
  SOUTHWEST OHIO

CITY           SKY/WX    TMP DP  RH WIND       PRES   REMARKS
CINC-COVINGTON MOSUNNY   24  11  57 S10       30.47F WCI  14
CINC-LUNKEN    SUNNY     24  10  55 SW9       30.51F WCI  14
HAMILTON       SUNNY     28   9  44 SW7       30.49F WCI  21
DAYTON         NOT AVBL
WRIGHT-PAT AFB NOT AVBL
DAYTON GENERAL SUNNY     24   9  52 SW9G18    30.44F WCI  14
WILMINGTON     MOSUNNY   20   6  55 S13       30.45F WCI   7
$$

OHZ036-037-039>041-045>050-054>059-063>069-073>076-082>088-062000-
  CENTRAL AND SOUTHEAST OHIO

CITY           SKY/WX    TMP DP  RH WIND       PRES   REMARKS
COLUMBUS       PTSUNNY   20   6  55 SW13G18   30.47F WCI   7
OSU AIRPORT    MOSUNNY   21   6  52 S14       30.45F WCI   8
BOLTON FIELD   SUNNY     21   9  58 S10       30.47F WCI  10
RICKENBACK AFB NOT AVBL
NEWARK         SUNNY     20   6  55 S10       30.46F WCI   9
MARION         SUNNY     21   9  59 S17       30.42F WCI   7
LANCASTER      SUNNY     21   7  54 W7        30.48F WCI  12
ZANESVILLE     SUNNY     20   4  50 VRB3      30.46F
NEW PHILLY     SUNNY     24   5  44 W6        30.44F WCI  17
$$



USA.gov is the U.S. government's official web portal to all federal, state and local government web resources and services.